Location: *
(38.9800°N, 16.0500°E)
Time: 05:38:25
(UTC+00:00)

Meteor 1-15 Rocket - Pass Details

Date: 07 April 2020
Orbit: 840 x 907 km, 81.2° (Epoch: 05 June)

Event Time Altitude Azimuth Distance (km) Brightness Sun altitude
Rises 03:43:40 0° 347° (NNW) 3,408 7.4 -9.7°
Reaches altitude 10° 03:46:05 10° 345° (NNW) 2,473 6.7 -9.3°
Maximum altitude 03:51:38 67° 264° (W) 921 4.2 -8.3°
Drops below altitude 10° 03:57:14 10° 183° (S) 2,492 6.5 -7.2°
Sets 03:59:41 0° 180° (S) 3,435 7.2 -6.7°
